World > North America > United States > Florida   Discover Alligator Point

Hourly Alligator Point, FL Regional Weather

Feedback E-mail the Weather

Quick WX

Alligator Point, FL Weather Maps

°F °C°F °C
Alligator Point Weather Map
UTC Time: 7/3/2022, 02:36
Your Time:

Alligator Point, FL Regional Weather

Expires:202207030300;;584619
ASUS42 KTBW 030216
RWRFL 
FLORIDA REGIONAL WEATHER ROUNDUP
NATIONAL WEATHER SERVICE TAMPA BAY RUSKIN FL
1000 PM EDT SAT JUL 02 2022

NOTE: "FAIR" INDICATES FEW OR NO CLOUDS BELOW 12,000 FEET WITH NO
SIGNIFICANT WEATHER AND/OR OBSTRUCTIONS TO VISIBILITY.


FLZ001>010-012>015-112-114-115-030300-
PANHANDLE FLORIDA
  
CITY           SKY/WX    TMP DP  RH WIND       PRES   REMARKS
PENSACOLA      MOCLDY    80  78  94 E3        30.04R                  
CRESTVIEW      MOCLDY    77  76  96 CALM      30.07R                  
DUKE FIELD     MOCLDY    77  75  95 CALM      30.05S                  
VALPARAISO     MOCLDY    78  76  94 CALM      30.04R                  
MARY ESTHER    MOCLDY    79  75  86 CALM      30.04R                  
PANAMA CITY    FAIR      78  75  90 NE3       30.06R                  
TYNDALL AFB    MOCLDY    83  75  79 NW3       30.06R                  
APALACHICOLA   CLOUDY    79  77  94 NE5       30.06R                  

STATION/POSITION SKY/WX   TEMP    WIND        PRES    WAVE   SWELL
                          AIR SEA DIR/SP/G            HT/PER HT/PER
                          (F)     (DEG/KT/KT) (MB)    (FT/S) (FT/S)
30.1N   87.6W              83     140/  4/  6   N/A     1/ 4
29.2N   88.2W              85 86  160/  4/  6 1017.4R   1/ 4   2/ 4
28.8N   86.0W              85 86  190/  4/  4 1018.2R   2/ 5   2/ 5
PANAMA CITY BEAC           80 86  360/  2/  4 1018.3R
TOWER C                    84     210/  4/  5 1018.4R
28.5N   84.5W              85     170/  4/  6   N/A     1/ 4   2/ 4

$$

SKY/WX - Weather  TMP - Temperature  DP - Dew Point  RH - Humidity
WIND - Wind Direction/Speed PRES - Barometric Pressure VSB - Visibility
WCI - Wind Chill Index E13G22 Wind - East Wind 13 mph/Gusts of 22 mph

Trending Headlines

Alligator Point Radar Loop



Alligator Point Quick Facts


National Two Day Weather Forecast


E-mail the Alligator Point Weather Forecast

Voice your opinion or tell us about page issues...